sat.trackr.live / text

‹ back to catalog

STARLINK-2453

NORAD 47845 · 2021-018BL

PAYLOAD ACTIVE UNKNOWN

§ Identity

Operator
Country
US
Launch date
2021-03-11
Launch site
AFETR
Launch vehicle
Mass (kg)
RCS (m²)

Purposes: comms

External: N2YO · Heavens-Above · Gunter

§ Orbital elements

Epoch: 2026-09-19T20:15:40.068864Z

Period
94.01 min
Inclination
53.1593°
Eccentricity
0.0001027
Mean motion
15.31709502 rev/d
Perigee alt
470.0 km
Apogee alt
471.4 km
Semi-major
6,848.8 km
B*
2.5799e-5
RAAN
75.0630°
Arg perigee
90.5069°
Mean anomaly
269.6050°
Rev number
30,624

§ Raw data

STARLINK-24531 47845U 21018BL  26262.84421376  .00000436  00000+0  25799-4 0  99912 47845  53.1593  75.0630 0001027  90.5069 269.6050 15.31709502306242

JSON: /api/v1/satellites/47845 · /tle

For live sub-satellite position, see the globe view (requires WebGL).

§ Visibility from observer

Set your observer location to see the next 7 days of passes ≥ 10°. The values pass through the URL so the page stays shareable.

No JS? Fill the form by hand. The geolocation button needs JavaScript.